Retour au catalogue

SL-12 R/B(2)

ActifGEO
NORAD 33111·ROCKET BODY·🇷🇺 Russia

Lancé Jun 27, 2008 depuis Baikonur Cosmodrome

Loading…

TLE

FraisSource: Space-Track

Époque: Sep 14, 2026, 21:00 UTC

1 33111U 08033D   26257.87528720 -.00000117  00000-0  00000-0 0  9994
2 33111  10.7323  40.4741 0030302 341.1020   2.9219  1.00308465 66705

Suivez SL-12 R/B(2) en temps réel avec AllMySat

Download on the App Store